Regional Weather Roundup
Issued by NWS

Home | Current Version | Previous Version | Graphics & Text | Print | Product List | Glossary On
Versions: 1 2 3 4 5 6 7 8 9 10 11 12 13 14 15 16 17 18 19 20 21 22 23 24 25 26 27 28 29 30 31 32 33 34 35 36 37 38 39 40 41 42 43 44 45 46 47 48 49 50
000
ASUS43 KTOP 071759
RWRKS

WEATHER ROUNDUP FOR KANSAS
NATIONAL WEATHER SERVICE GOODLAND KS
100 PM CDT TUE JUL 07 2015

NOTE:  "FAIR" INDICATES FEW OR NO CLOUDS BELOW 12,000 FEET WITH NO
SIGNIFICANT WEATHER AND/OR OBSTRUCTIONS TO VISIBILITY.

KSZ001>006-013>018-027>032-041>047-071900-
NORTHWEST KANSAS

CITY           SKY/WX    TMP DP  RH WIND       PRES   REMARKS
GOODLAND       SUNNY     72  44  36 E15G22    30.19F
6HR MIN TEMP:  52; 6HR MAX TEMP:  72;

HAYS           MOSUNNY   73  48  40 NE14G23   30.15F
HILL CITY      SUNNY     77  48  35 NE15G21   30.17F HAZE
6HR MIN TEMP:  57; 6HR MAX TEMP:  77;

RUSSELL        MOSUNNY   74  50  42 NE16G23   30.13F
6HR MIN TEMP:  59; 6HR MAX TEMP:  74; 6HR PCP: TRACE;

$$

KSZ061>065-074>080-084>089-071900-
SOUTHWEST KANSAS

CITY           SKY/WX    TMP DP  RH WIND       PRES   REMARKS
DODGE CITY     PTSUNNY   72  44  36 E14G25    30.15S HAZE
6HR MIN TEMP:  59; 6HR MAX TEMP:  72;

ELKHART          N/A     74  49  41 NE14        N/A
GARDEN CITY    SUNNY     72  47  40 NE18G24   30.16F
6HR MIN TEMP:  58; 6HR MAX TEMP:  72;

GREAT BEND     MOSUNNY   73  50  43 NE17      30.15F
LIBERAL        MOSUNNY   70  55  60 NE13      30.17S
$$

KSZ066>073-081>083-090>101-071900-
SOUTHEAST KANSAS

CITY           SKY/WX    TMP DP  RH WIND       PRES   REMARKS
CHANUTE        LGT RAIN  66  64  93 N12       30.05S FOG
6HR MIN TEMP:  62; 6HR MAX TEMP:  66; 6HR PCP:  0.07;

COFFEYVILLE    CLOUDY    67  62  84 NE15      30.03S HAZE
6HR MIN TEMP:  64; 6HR MAX TEMP:  72;

HUTCHINSON     CLOUDY    66  51  58 NE9       30.12S
6HR MIN TEMP:  63; 6HR MAX TEMP:  67; 6HR PCP: TRACE;

MEDICINE LODGE   N/A     66  59  78 NE16G25   30.10F
NEWTON         CLOUDY    68  52  56 NE15      30.12F
PARSONS        CLOUDY    67  63  87 N10       30.04F
6HR MIN TEMP:  64; 6HR MAX TEMP:  69;

WICHITA INTL   CLOUDY    68  59  73 N12       30.09S
6HR MIN TEMP:  65; 6HR MAX TEMP:  69; 6HR PCP:  0.24;

WICHITA JABRA  CLOUDY    69  60  73 NE15      30.08F
6HR MIN TEMP:  63; 6HR MAX TEMP:  69; 6HR PCP:  0.09;

WINFIELD       LGT RAIN  66  62  87 NE14      30.07F FOG
6HR MIN TEMP:  63; 6HR MAX TEMP:  66; 6HR PCP:  0.03;

$$

KSZ007>012-019>026-033>040-048>060-102>105-071900-
NORTHEAST KANSAS

CITY           SKY/WX    TMP DP  RH WIND       PRES   REMARKS
CONCORDIA      MOSUNNY   70  53  54 NE15G22   30.15F
6HR MIN TEMP:  59; 6HR MAX TEMP:  71;

EMPORIA        CLOUDY    69  57  65 N15G22    30.08S
6HR MIN TEMP:  62; 6HR MAX TEMP:  71; 6HR PCP:  0.01;

LAWRENCE       PTSUNNY   72  59  63 NE10      30.08F HAZE
6HR MIN TEMP:  63; 6HR MAX TEMP:  73; 6HR PCP: TRACE;

MANHATTAN      MOSUNNY   72  51  47 NE15G23   30.11F
6HR MIN TEMP:  63; 6HR MAX TEMP:  73;

OLATHE IND     CLOUDY    70  60  70 N15       30.07F HAZE
6HR MIN TEMP:  62; 6HR MAX TEMP:  70; 6HR PCP:  0.04;

OLATHE EXE     CLOUDY    70  58  65 NE14      30.06F HAZE
6HR MIN TEMP:  61; 6HR MAX TEMP:  71; 6HR PCP:  0.01;

SALINA         PTSUNNY   75  50  41 NE12G21   30.13S
6HR MIN TEMP:  65; 6HR MAX TEMP:  75;

TOPEKA BILLARD PTSUNNY   70  59  68 N8        30.10S
6HR MIN TEMP:  63; 6HR MAX TEMP:  71;

TOPEKA FORBES  PTSUNNY   72  58  61 N13       30.09S
6HR MIN TEMP:  64; 6HR MAX TEMP:  72;

$$


USA.gov is the U.S. government's official web portal to all federal, state and local government web resources and services.